[[[{"header":{"parameterUnit":"kt","parameterCategory":2,"dx":1,"dy":1,"la1":30.253999710083008,"la2":30.299108505249023,"lo1":-89.0895004272461,"lo2":-89.04439544677734,"nx":28,"ny":28,"refTime":"2022-10-31T21:00:00:Z","depth":0,"parameterNumber":1,"parameterNumberName":"U-component_of_WINDS"},"data":[0.2176,0.2229,0.2318,0.242,0.2519,0.2606,0.2666,0.2754,0.2848,0.2965,0.305,0.3149,0.3282,0.3408,0.3507,0.3551,0.3586,0.3538,0.3597,0.3724,0.3748,0.377,0.3762,0.3545,0.3544,0.3453,0.3452,0.3451,0.2261,0.2356,0.2437,0.2575,0.2646,0.2745,0.2866,0.2919,0.2995,0.3112,0.32,0.3313,0.3415,0.3568,0.3683,0.3714,0.3769,0.3739,0.3738,0.3758,0.3897,0.3887,0.3692,0.3692,0.3692,0.3692,0.3692,0.3692,0.2438,0.2466,0.2602,0.2691,0.2786,0.2879,0.2924,0.3043,0.3126,0.3253,0.3348,0.3438,0.3576,0.3761,0.3847,0.3923,0.3974,0.3971,0.397,0.3966,0.3949,0.4068,0.3947,0.3948,0.3949,0.395,0.395,0,0.2596,0.2669,0.2753,0.2862,0.2933,0.3028,0.3132,0.3162,0.3353,0.3413,0.351,0.3582,0.3725,0.3829,0.3958,0.4051,0.4164,0.4186,0.4185,0.4138,0.408,0.4111,0.4332,0.4189,0.4191,0.4193,0.4195,0.4196,0.2782,0.2804,0.2992,0.3038,0.3117,0.3191,0.3254,0.3421,0.3481,0.3635,0.3655,0.376,0.3853,0.3996,0.4142,0.4251,0.4307,0.4242,0.4324,0.4279,0.4306,0.4303,0.4307,0.4222,0.4218,0.4216,0.4213,0,0.2878,0.3026,0.3091,0.3276,0.3323,0.3339,0.35,0.3537,0.3652,0.372,0.3746,0.3926,0.402,0.4177,0.4318,0.4397,0.4432,0.4484,0.4385,0.4404,0.4361,0.4362,0.4197,0.4184,0.4412,0.4409,0.4407,0,0.3095,0.3119,0.3339,0.3368,0.3402,0.3569,0.3598,0.3699,0.382,0.3875,0.4027,0.4076,0.4271,0.4344,0.4461,0.4518,0.4545,0.4609,0.464,0.4595,0.4586,0.4631,0.4641,0.4709,0.471,0.4711,0.4711,0,0.3228,0.3376,0.3425,0.3483,0.3684,0.3704,0.379,0.3926,0.3987,0.4093,0.4136,0.4247,0.4308,0.4394,0.4543,0.4593,0.4616,0.4716,0.4683,0.4678,0.4679,0.4676,0.4491,0.4712,0.4712,0.4713,0.4713,0,0.3427,0.3526,0.3576,0.3747,0.378,0.3813,0.3933,0.3998,0.4132,0.4207,0.4292,0.4413,0.4475,0.4563,0.4652,0.4674,0.4727,0.4795,0.4795,0.481,0.4903,0.4777,0.4584,0.457,0.4824,0.4825,0.4826,0,0.3539,0.3629,0.3773,0.3817,0.3881,0.4047,0.4089,0.4202,0.4306,0.4378,0.4496,0.4576,0.4675,0.4723,0.4746,0.4871,0.4842,0.488,0.4984,0.4986,0.4942,0.4767,0.4698,0.4609,0.484,0.4839,0.4838,0,0.3645,0.3888,0.3885,0.3959,0.4133,0.4188,0.4235,0.4352,0.4391,0.4502,0.4547,0.4666,0.4745,0.4822,0.4933,0.4949,0.4867,0.5033,0.5039,0.4997,0.4861,0.4795,0.4779,0.4938,0.4937,0.4936,0.4849,0,0.391,0.3975,0.3975,0.4131,0.4198,0.4235,0.44,0.4449,0.4548,0.4658,0.4728,0.4864,0.4984,0.5009,0.5107,0.5092,0.512,0.5204,0.53,0.5184,0.516,0.515,0.5323,0.5327,0.533,0.5333,0,0,0.398,0.4077,0.4233,0.4284,0.435,0.4523,0.4548,0.4633,0.4801,0.4844,0.4899,0.5084,0.5192,0.526,0.5237,0.5286,0.5299,0.5333,0.5238,0.5227,0.5217,0.5188,0.5175,0.5339,0.534,0.5341,0.5342,0,0.4111,0.4213,0.4234,0.4329,0.4475,0.459,0.4595,0.4771,0.4842,0.4911,0.5055,0.5117,0.526,0.5357,0.5424,0.5329,0.5435,0.5354,0.5247,0.5265,0.5249,0.5236,0.5203,0.5189,0.535,0.5349,0.5349,0,0.4244,0.4372,0.44,0.4557,0.4655,0.4717,0.4858,0.4918,0.4966,0.5155,0.5221,0.5319,0.5462,0.5504,0.553,0.5581,0.5549,0.5589,0.5573,0.558,0.5606,0.5587,0.557,0.5793,0.5794,0.5794,0,0,0.4335,0.4396,0.4586,0.4598,0.4649,0.482,0.487,0.4974,0.5097,0.5145,0.5273,0.5389,0.5476,0.5528,0.5618,0.5641,0.5685,0.5636,0.5616,0.5598,0.5594,0.5615,0.5596,0.5798,0.5798,0.5798,0,0,0.4379,0.4599,0.4677,0.4711,0.4821,0.5011,0.5013,0.5113,0.521,0.5224,0.5406,0.5444,0.5487,0.5579,0.5601,0.5656,0.5748,0.5746,0.5594,0.557,0.555,0.5527,0.5767,0,0,0,0,0,0.4597,0.4572,0.464,0.467,0.4871,0.4972,0.5,0.5147,0.5209,0.5207,0.5331,0.5441,0.5629,0.5653,0.5682,0.5654,0.5839,0.5831,0.5824,0.5635,0.5608,0.5585,0,0,0,0,0,0,0.461,0.4646,0.4641,0.4827,0.4874,0.4975,0.5112,0.5152,0.5213,0.5232,0.5413,0.5446,0.5576,0.5649,0.5672,0.5643,0.576,0.5836,0.583,0.5824,0.5625,0.5603,0.5584,0,0,0,0,0,0.4621,0.4651,0.4934,0.4829,0.4869,0.5059,0.5114,0.5149,0.5199,0.539,0.5426,0.5304,0.5571,0.5601,0.5664,0.5629,0.5744,0.5753,0.5832,0.5827,0.5822,0.5615,0,0,0,0,0,0,0.463,0.4684,0.4945,0.4963,0.4849,0.5057,0.5094,0.5145,0.5356,0.5391,0.529,0.5303,0.5567,0.5591,0.5614,0.5615,0.5732,0.574,0.5745,0.5828,0.5824,0.5821,0,0,0,0,0,0,0.4669,0.4698,0.4955,0.4972,0.4993,0.5053,0.5087,0.5162,0.5356,0.5245,0.5262,0.5293,0.5534,0.5584,0.5602,0.5714,0.5722,0.573,0.5736,0.5739,0.5825,0.5822,0,0,0,0,0,0,0.4684,0.4709,0.4968,0.4984,0.5003,0.5217,0.5123,0.5322,0.5367,0.5233,0.5375,0.5379,0.5524,0.5546,0.5593,0.5696,0.5709,0.5722,0.5728,0.5732,0.5734,0,0,0,0,0,0,0,0.4696,0.4495,0.4838,0.4995,0.5012,0.513,0.5135,0.514,0.5368,0.5371,0.5374,0.5378,0.5676,0.5685,0.5694,0.5682,0,0,0.5722,0.5726,0,0,0,0,0,0,0,0,0.4488,0.4493,0.4839,0.4842,0.4846,0.513,0.5134,0.5138,0.5368,0.5371,0.5374,0.5376,0.5679,0.5686,0.5693,0,0,0,0,0,0,0,0,0,0,0,0,0,0,0,0.4839,0.4842,0,0.5131,0.5134,0.5138,0.5369,0.5371,0.5373,0.5375,0.5681,0.5687,0.5693,0,0,0,0,0,0,0,0,0,0,0,0,0,0,0,0,0,0,0,0,0,0,0,0,0,0,0,0,0,0,0,0,0,0,0,0,0,0,0,0,0,0,0,0,0,0,0,0,0,0,0,0,0,0,0,0,0,0,0,0,0,0,0,0,0,0,0,0,0]}],[{"header":{"parameterUnit":"kt","parameterCategory":2,"dx":1,"dy":1,"la1":30.253999710083008,"la2":30.299108505249023,"lo1":-89.0895004272461,"lo2":-89.04439544677734,"nx":28,"ny":28,"refTime":"2022-10-31T21:00:00:Z","depth":0,"parameterNumber":2,"parameterNumberName":"V-component_of_WINDS"},"data":[1.5034,1.4994,1.4998,1.4952,1.4949,1.4918,1.4908,1.4896,1.4887,1.485,1.4828,1.4829,1.4821,1.4796,1.4773,1.4773,1.4761,1.4741,1.4744,1.4831,1.4844,1.4855,1.4864,1.474,1.474,1.4652,1.4651,1.465,1.5087,1.5083,1.5063,1.5046,1.5027,1.5047,1.5035,1.5017,1.499,1.498,1.4961,1.4929,1.4904,1.4905,1.4881,1.4859,1.4867,1.4852,1.4852,1.4849,1.4943,1.4953,1.4846,1.4846,1.4846,1.4846,1.4846,1.4846,1.5186,1.5162,1.5156,1.5134,1.5127,1.5115,1.5094,1.5096,1.5076,1.5054,1.5066,1.5035,1.5026,1.5003,1.4997,1.4971,1.4989,1.4974,1.4969,1.4963,1.4955,1.507,1.4968,1.4969,1.4969,1.4969,1.497,0,1.5258,1.5264,1.5247,1.5229,1.5214,1.5202,1.5192,1.5179,1.5196,1.5179,1.5154,1.514,1.5113,1.5089,1.5071,1.5068,1.5087,1.5092,1.5081,1.5071,1.5063,1.506,1.5209,1.5095,1.5096,1.5097,1.5097,1.5098,1.5353,1.5329,1.5327,1.5314,1.5311,1.529,1.5278,1.5296,1.5282,1.5273,1.5251,1.5229,1.5212,1.5172,1.5176,1.5156,1.5165,1.5119,1.5162,1.5153,1.5157,1.5156,1.5151,1.5109,1.5108,1.5107,1.5106,0,1.5405,1.5417,1.5381,1.5384,1.5384,1.5356,1.5357,1.5336,1.5343,1.5314,1.5308,1.5319,1.5295,1.5307,1.5284,1.529,1.5237,1.5249,1.5237,1.5239,1.5195,1.5197,1.5064,1.5044,1.5179,1.5178,1.5177,0,1.5489,1.5457,1.5476,1.5456,1.5419,1.5439,1.5402,1.5405,1.5402,1.5379,1.5406,1.5384,1.5405,1.5384,1.5395,1.5355,1.5352,1.5353,1.5355,1.5348,1.5347,1.5338,1.5342,1.537,1.537,1.5371,1.5371,0,1.5565,1.5542,1.5509,1.5505,1.5507,1.549,1.549,1.5488,1.5477,1.5466,1.5459,1.5445,1.5436,1.5424,1.5437,1.5465,1.5391,1.5432,1.5391,1.539,1.5372,1.5372,1.5254,1.5372,1.5372,1.5373,1.5373,0,1.5635,1.5626,1.5578,1.5579,1.5572,1.5551,1.5539,1.5525,1.5521,1.5527,1.5519,1.5538,1.551,1.5548,1.5506,1.5537,1.5526,1.5526,1.5524,1.5519,1.556,1.5486,1.5376,1.5362,1.5516,1.5518,1.5519,0,1.5715,1.5673,1.5692,1.5646,1.5628,1.5659,1.5636,1.5634,1.564,1.5624,1.5631,1.5614,1.5647,1.5643,1.5621,1.5627,1.5586,1.5634,1.5603,1.5602,1.5598,1.5498,1.5476,1.5399,1.5535,1.5533,1.5532,0,1.578,1.5787,1.5778,1.5774,1.5778,1.5765,1.5739,1.5728,1.5716,1.5713,1.5689,1.5669,1.569,1.5686,1.5702,1.5678,1.5614,1.5705,1.5705,1.5683,1.5546,1.5524,1.5511,1.5629,1.5627,1.5626,1.5544,0,1.5873,1.5857,1.5835,1.5831,1.5824,1.58,1.5817,1.5807,1.5823,1.5831,1.58,1.5806,1.5795,1.5787,1.5804,1.5748,1.5759,1.5784,1.582,1.5757,1.5729,1.5719,1.5858,1.5859,1.586,1.5861,0,0,1.5944,1.5922,1.5947,1.5925,1.592,1.5955,1.5926,1.5926,1.5926,1.592,1.5941,1.5912,1.5917,1.5877,1.5859,1.5857,1.5846,1.587,1.5788,1.578,1.5772,1.5743,1.5732,1.5863,1.5863,1.5864,1.5864,0,1.5982,1.5989,1.5963,1.5963,1.5966,1.5979,1.5972,1.5981,1.5986,1.596,1.5988,1.5972,1.5953,1.595,1.5946,1.5876,1.5896,1.5872,1.5825,1.5798,1.5788,1.578,1.5749,1.5738,1.5866,1.5866,1.5866,0,1.6045,1.6053,1.6044,1.604,1.6043,1.6026,1.6069,1.6052,1.6038,1.6079,1.6052,1.6058,1.6059,1.6022,1.6007,1.6026,1.594,1.5974,1.5968,1.5966,1.594,1.5928,1.5918,1.6052,1.6052,1.6053,0,0,1.6075,1.6063,1.6078,1.605,1.6049,1.6068,1.6063,1.6079,1.6081,1.6082,1.609,1.609,1.6077,1.6069,1.6059,1.6018,1.6017,1.5996,1.5987,1.598,1.5973,1.5946,1.5934,1.6055,1.6055,1.6055,0,0,1.6089,1.6107,1.6124,1.6094,1.6094,1.6108,1.6089,1.6109,1.6103,1.6108,1.6134,1.6136,1.6103,1.6108,1.6134,1.6072,1.6108,1.6103,1.6069,1.6059,1.605,1.6048,1.6178,0,0,0,0,0,1.6138,1.6105,1.612,1.6118,1.6115,1.61,1.6099,1.6121,1.6144,1.6128,1.6138,1.6163,1.6126,1.615,1.6147,1.6117,1.6082,1.6077,1.6073,1.602,1.6009,1.5999,0,0,0,0,0,0,1.6138,1.6135,1.6121,1.6133,1.6132,1.6101,1.6146,1.6151,1.6147,1.6152,1.616,1.6164,1.6181,1.6153,1.615,1.6121,1.6179,1.608,1.6076,1.6072,1.6016,1.6007,1.5999,0,0,0,0,0,1.6137,1.6136,1.6125,1.6133,1.6133,1.6153,1.6147,1.6152,1.6149,1.6166,1.617,1.6166,1.618,1.6179,1.6151,1.6122,1.6182,1.6181,1.6077,1.6074,1.6071,1.6012,0,0,0,0,0,0,1.6137,1.6139,1.6126,1.6126,1.6149,1.6155,1.6157,1.6152,1.6164,1.6167,1.6173,1.6176,1.6179,1.6178,1.6177,1.6121,1.6184,1.6182,1.6182,1.6075,1.6072,1.607,0,0,0,0,0,0,1.614,1.6139,1.6126,1.6144,1.6147,1.6157,1.6159,1.614,1.6163,1.617,1.6174,1.6174,1.618,1.6177,1.6176,1.6146,1.6185,1.6184,1.6183,1.6183,1.6073,1.6071,0,0,0,0,0,0,1.614,1.6139,1.6144,1.6146,1.6149,1.6157,1.6141,1.6136,1.618,1.6169,1.6184,1.6186,1.6178,1.6178,1.6176,1.6146,1.6146,1.6185,1.6184,1.6184,1.6183,0,0,0,0,0,0,0,1.614,1.6141,1.6122,1.6148,1.6151,1.6131,1.6131,1.6132,1.618,1.6182,1.6184,1.6186,1.6192,1.6191,1.6189,1.6145,0,0,1.6185,1.6185,0,0,0,0,0,0,0,0,1.6142,1.6141,1.6122,1.6122,1.6123,1.6131,1.6131,1.6132,1.6181,1.6182,1.6184,1.6185,1.6192,1.6191,1.619,0,0,0,0,0,0,0,0,0,0,0,0,0,0,0,1.6122,1.6122,0,1.6131,1.6131,1.6132,1.6181,1.6182,1.6183,1.6184,1.6191,1.6191,1.619,0,0,0,0,0,0,0,0,0,0,0,0,0,0,0,0,0,0,0,0,0,0,0,0,0,0,0,0,0,0,0,0,0,0,0,0,0,0,0,0,0,0,0,0,0,0,0,0,0,0,0,0,0,0,0,0,0,0,0,0,0,0,0,0,0,0,0,0,0]}]]]